| time (UTC) | temp F | wind direction | speed knots | gust knots | rain 1hr in | rain 24hr in | rain mn in | humidity % | barometer mb |
| 20260505093055 | 62 | 170 | 0.0 | 2.6 | 0.00 | 0.00 | 0.00 | 64 | 1013.6 |
| 20260505091555 | 62 | 236 | 0.9 | 3.5 | 0.00 | 0.00 | 0.00 | 64 | 1013.5 |
| 20260505090042 | 62 | 253 | 0.9 | 7.0 | 0.00 | 0.00 | 0.00 | 63 | 1013.5 |
| 20260505084542 | 63 | 240 | 2.6 | 6.1 | 0.00 | 0.00 | 0.00 | 63 | 1013.4 |
| 20260505083136 | 63 | 217 | 1.7 | 6.1 | 0.00 | 0.00 | 0.00 | 63 | 1013.4 |
| 20260505081534 | 63 | 174 | 2.6 | 7.0 | 0.00 | 0.00 | 0.00 | 62 | 1013.4 |
| 20260505080032 | 63 | 265 | 1.7 | 9.6 | 0.00 | 0.00 | 0.00 | 62 | 1013.4 |
| 20260505074531 | 63 | 259 | 3.5 | 9.6 | 0.00 | 0.00 | 0.00 | 62 | 1013.4 |
| 20260505073029 | 64 | 224 | 4.3 | 8.7 | 0.00 | 0.00 | 0.00 | 62 | 1013.5 |
| 20260505071532 | 64 | 225 | 4.3 | 9.6 | 0.00 | 0.00 | 0.00 | 62 | 1013.3 |
| 20260505070027 | 64 | 204 | 3.5 | 9.6 | 0.00 | 0.00 | 0.00 | 62 | 1013.3 |
| 20260505064521 | 63 | 219 | 2.6 | 7.0 | 0.00 | 0.00 | 0.00 | 62 | 1013.3 |
| 20260505063019 | 62 | 235 | 1.7 | 3.5 | 0.00 | 0.00 | 0.00 | 63 | 1013.3 |
| 20260505061517 | 62 | 229 | 0.0 | 0.9 | 0.00 | 0.00 | 0.00 | 65 | 1013.4 |
| 20260505060033 | 62 | 217 | 0.9 | 2.6 | 0.00 | 0.00 | 0.00 | 64 | 1013.4 |
| 20260505054513 | 62 | 203 | 0.0 | 0.0 | 0.00 | 0.00 | 0.00 | 64 | 1013.3 |
| 20260505053008 | 63 | 191 | 0.0 | 1.7 | 0.00 | 0.00 | 0.00 | 63 | 1013.4 |
| 20260505051515 | 62 | 210 | 0.0 | 1.7 | 0.00 | 0.00 | 0.00 | 64 | 1013.5 |
| 20260505050107 | 61 | 211 | 0.0 | 2.6 | 0.00 | 0.00 | 0.00 | 67 | 1013.6 |
| 20260505041546 | 58 | 165 | 0.0 | 0.0 | 0.00 | 0.00 | 0.00 | 76 | 1013.4 |
| 20260505040043 | 58 | 166 | 0.0 | 0.0 | 0.00 | 0.00 | 0.00 | 78 | 1013.2 |
| 20260505034540 | 58 | 167 | 0.0 | 0.0 | 0.00 | 0.00 | 0.00 | 78 | 1013.2 |
| 20260505033038 | 59 | 167 | 0.0 | 0.0 | 0.00 | 0.00 | 0.00 | 78 | 1013.2 |
| 20260505031534 | 60 | 167 | 0.0 | 0.0 | 0.00 | 0.00 | 0.00 | 76 | 1013.2 |
| 20260505030033 | 61 | 217 | 0.0 | 0.0 | 0.00 | 0.00 | 0.00 | 74 | 1013.2 |
| 20260505024532 | 62 | 217 | 0.0 | 1.7 | 0.00 | 0.00 | 0.00 | 73 | 1013.3 |
| 20260505023028 | 62 | 172 | 0.0 | 0.0 | 0.00 | 0.00 | 0.00 | 70 | 1013.3 |
| 20260505021529 | 63 | 172 | 0.0 | 1.7 | 0.00 | 0.00 | 0.00 | 67 | 1013.3 |
| 20260505020023 | 64 | 208 | 0.0 | 1.7 | 0.00 | 0.00 | 0.00 | 65 | 1013.1 |
| 20260505014521 | 65 | 172 | 0.9 | 1.7 | 0.00 | 0.00 | 0.00 | 62 | 1013.1 |
| 20260505013020 | 65 | 160 | 0.0 | 1.7 | 0.00 | 0.00 | 0.00 | 64 | 1013.0 |
| 20260505011523 | 65 | 214 | 0.9 | 1.7 | 0.00 | 0.00 | 0.00 | 63 | 1012.9 |
| 20260505010016 | 65 | 181 | 0.0 | 1.7 | 0.00 | 0.00 | 0.00 | 64 | 1012.6 |
| 20260505004520 | 65 | 188 | 0.9 | 2.6 | 0.00 | 0.00 | 0.00 | 65 | 1012.5 |
| 20260505003013 | 65 | 212 | 0.0 | 1.7 | 0.00 | 0.00 | 0.00 | 65 | 1012.4 |
| 20260505001511 | 66 | 166 | 0.0 | 0.9 | 0.00 | 0.00 | 0.00 | 65 | 1012.5 |
| 20260505000019 | 66 | 207 | 0.0 | 1.7 | 0.00 | 0.00 | 0.00 | 64 | 1012.6 |
| 20260504234508 | 67 | 203 | 0.0 | 1.7 | 0.00 | 0.00 | 0.00 | 62 | 1012.5 |
| 20260504233006 | 69 | 207 | 0.9 | 1.7 | 0.00 | 0.00 | 0.00 | 58 | 1012.3 |
| 20260504231503 | 70 | 171 | 1.7 | 4.3 | 0.00 | 0.00 | 0.00 | 55 | 1012.5 |
| 20260504230002 | 70 | 198 | 1.7 | 7.0 | 0.00 | 0.00 | 0.00 | 54 | 1012.5 |
| 20260504224559 | 69 | 202 | 2.6 | 7.8 | 0.00 | 0.00 | 0.00 | 52 | 1012.3 |
| 20260504223102 | 69 | 183 | 6.1 | 11.3 | 0.00 | 0.00 | 0.00 | 50 | 1012.5 |
| 20260504221555 | 70 | 177 | 4.3 | 11.3 | 0.00 | 0.00 | 0.00 | 48 | 1012.4 |
| 20260504220052 | 70 | 188 | 5.2 | 11.3 | 0.00 | 0.00 | 0.00 | 49 | 1012.4 |
| 20260504214601 | 71 | 214 | 5.2 | 8.7 | 0.00 | 0.00 | 0.00 | 48 | 1012.6 |
| 20260504213051 | 71 | 162 | 2.6 | 9.6 | 0.00 | 0.00 | 0.00 | 48 | 1012.6 |
| 20260504211549 | 71 | 192 | 4.3 | 12.2 | 0.00 | 0.00 | 0.00 | 47 | 1012.6 |
| 20260504210043 | 71 | 146 | 2.6 | 11.3 | 0.00 | 0.00 | 0.00 | 47 | 1012.5 |
| 20260504204541 | 72 | 198 | 4.3 | 9.6 | 0.00 | 0.00 | 0.00 | 44 | 1012.7 |
| 20260504203142 | 73 | 212 | 2.6 | 7.0 | 0.00 | 0.00 | 0.00 | 44 | 1012.4 |
| 20260504201539 | 75 | 196 | 2.6 | 8.7 | 0.00 | 0.00 | 0.00 | 37 | 1012.7 |
| 20260504200032 | 75 | 179 | 2.6 | 5.2 | 0.00 | 0.00 | 0.00 | 37 | 1012.9 |
| 20260504194531 | 75 | 220 | 3.5 | 6.1 | 0.00 | 0.00 | 0.00 | 37 | 1013.0 |
| 20260504193026 | 74 | 217 | 0.9 | 7.8 | 0.00 | 0.00 | 0.00 | 38 | 1013.3 |
| 20260504191525 | 74 | 166 | 1.7 | 8.7 | 0.00 | 0.00 | 0.00 | 39 | 1013.5 |
| 20260504190020 | 73 | 206 | 0.9 | 5.2 | 0.00 | 0.00 | 0.00 | 41 | 1013.7 |
| 20260504184519 | 73 | 160 | 2.6 | 6.1 | 0.00 | 0.00 | 0.00 | 42 | 1014.0 |
| 20260504183014 | 73 | 254 | 0.9 | 5.2 | 0.00 | 0.00 | 0.00 | 40 | 1014.1 |
| 20260504181515 | 73 | 181 | 1.7 | 5.2 | 0.00 | 0.00 | 0.00 | 41 | 1014.4 |
| 20260504180009 | 72 | 231 | 2.6 | 7.0 | 0.00 | 0.00 | 0.00 | 38 | 1014.4 |
| 20260504174505 | 72 | 205 | 1.7 | 10.4 | 0.00 | 0.00 | 0.00 | 37 | 1014.5 |
| 20260504173002 | 72 | 356 | 1.7 | 8.7 | 0.00 | 0.00 | 0.00 | 38 | 1014.8 |
| 20260504171610 | 71 | 212 | 2.6 | 6.1 | 0.00 | 0.00 | 0.00 | 39 | 1015.0 |